Burnet, TX

7:23 PM CDT on October 23, 2017 (GMT -0500)
Burnet Municipal-Craddock

Weather History for KBMQ - June, 2013

Change the Weather History Date:

Wednesday, June 19, 2013

  Actual Average Record
Temperature  
Mean Temperature 83 °F -  
Max Temperature 93 °F 88 °F 100 °F (2011)
Min Temperature 73 °F 69 °F 66 °F (2001)
Cooling Degree Days 18    
Growing Degree Days 33 (Base 50)    
Moisture  
Dew Point 68 °F    
Average Humidity 63    
Maximum Humidity 87    
Minimum Humidity 39    
Precipitation  
Precipitation 0.00 in - - ()
Sea Level Pressure  
Sea Level Pressure 29.94 in    
Wind  
Wind Speed 6 mph (SSE)    
Max Wind Speed 12 mph    
Max Gust Speed -    
Visibility 9 miles    
Events      
Averages and records for this station are not official NWS values.
T = Trace of Precipitation, MM = Missing Value Source: NWS Daily Summary

Daily Weather History Graph

Daily Weather History Graph

Search for Another Location

Airport or City:

Trip Planner

Search our weather history database for the weather conditions in past years. The results will help you decide how hot, cold, wet, or windy it might be!

Date:

Astronomy

Jun. 19, 2013 Rise Set
Actual Time 6:30 AM CDT 8:38 PM CDT
Civil Twilight 6:02 AM CDT 9:06 PM CDT
Nautical Twilight 5:28 AM CDT 9:40 PM CDT
Astronomical Twilight 4:52 AM CDT 10:16 PM CDT
Moon 4:43 PM CDT (6/19) 3:03 AM CDT (6/19)
Length of Visible Light 15h 03m
Length of Day
14h 08m
Waxing Gibbous, 80% of the Moon is Illuminated
Jun 19
Waxing Gibbous
Jun 23
Full
Jun 29
Last Quarter
Jul 8
New
Jul 15
First Quarter

Hourly Weather History & Observations

Time (CDT) Temp. Heat Index Dew Point Humidity Pressure Visibility Wind Dir Wind Speed Gust Speed Precip Events Conditions
12:53 AM 79.0 °F - 69.1 °F 72% 29.94 in 10.0 mi ESE 6.9 mph - N/A   Mostly Cloudy
1:53 AM 78.1 °F - 68.0 °F 71% 29.93 in 9.0 mi East 6.9 mph - N/A   Scattered Clouds
2:53 AM 75.9 °F - 68.0 °F 76% 29.92 in 10.0 mi ESE 4.6 mph - N/A   Clear
3:53 AM 75.0 °F - 68.0 °F 79% 29.92 in 10.0 mi SE 3.5 mph - N/A   Clear
4:53 AM 75.0 °F - 70.0 °F 84% 29.92 in 10.0 mi SSE 3.5 mph - N/A   Partly Cloudy
5:53 AM 73.9 °F - 70.0 °F 87% 29.93 in 7.0 mi SE 4.6 mph - N/A   Clear
6:53 AM 73.9 °F - 70.0 °F 87% 29.95 in 6.0 mi SSE 4.6 mph - N/A   Clear
7:37 AM 75.0 °F - 71.1 °F 87% 30.01 in 6.0 mi South 4.6 mph - N/A   Mostly Cloudy
7:53 AM 75.0 °F - 71.1 °F 87% 29.95 in 6.0 mi South 6.9 mph - N/A   Mostly Cloudy
8:46 AM 78.1 °F - 70.0 °F 76% 30.01 in 7.0 mi SSW 8.1 mph - N/A   Scattered Clouds
8:53 AM 78.1 °F - 70.0 °F 76% 29.96 in 8.0 mi South 11.5 mph - N/A   Scattered Clouds
9:53 AM 80.1 °F 82.9 °F 69.1 °F 69% 29.96 in 9.0 mi South 9.2 mph - N/A   Partly Cloudy
10:53 AM 84.0 °F 87.0 °F 68.0 °F 58% 29.96 in 10.0 mi South 8.1 mph - N/A   Clear
11:53 AM 87.1 °F 90.6 °F 68.0 °F 53% 29.97 in 10.0 mi South 8.1 mph - N/A   Clear
12:53 PM 88.0 °F 90.7 °F 66.9 °F 49% 29.95 in 10.0 mi South 10.4 mph - N/A   Clear
1:53 PM 89.1 °F 92.1 °F 66.9 °F 48% 29.95 in 10.0 mi Variable 5.8 mph - N/A   Clear
2:53 PM 91.0 °F 94.3 °F 66.9 °F 45% 29.93 in 10.0 mi South 10.4 mph - N/A   Clear
3:53 PM 93.0 °F 95.0 °F 64.9 °F 39% 29.91 in 10.0 mi South 5.8 mph - N/A   Partly Cloudy
4:53 PM 93.9 °F 97.0 °F 66.0 °F 40% 29.91 in 10.0 mi South 8.1 mph - N/A   Scattered Clouds
5:53 PM 93.0 °F 95.0 °F 64.9 °F 39% 29.90 in 10.0 mi South 9.2 mph - N/A   Clear
6:53 PM 91.0 °F 93.0 °F 64.9 °F 42% 29.91 in 10.0 mi SE 4.6 mph - N/A   Clear
7:53 PM 90.0 °F 92.4 °F 66.0 °F 45% 29.90 in 10.0 mi SE 5.8 mph - N/A   Clear
8:53 PM 87.1 °F 89.9 °F 66.9 °F 51% 29.92 in 10.0 mi ESE 4.6 mph - N/A   Clear
9:53 PM 84.9 °F 87.6 °F 66.9 °F 55% 29.91 in 10.0 mi South 4.6 mph - N/A   Clear
10:53 PM 82.9 °F 85.4 °F 66.9 °F 58% 29.93 in 10.0 mi ENE 3.5 mph - N/A   Clear
11:53 PM 82.0 °F 84.5 °F 66.9 °F 60% 29.94 in 10.0 mi South 8.1 mph - N/A   Clear